Wind_Speed
55 56 58 61 63 64 63 60 57 55 55 56 57 59 61 63 65 66 69 71 73 76 80 83 85 88 90 90 89 89 90 87 83 82 83 84 84 84 83 84 85 86
56 57 59 62 65 64 61 58 56 56 57 57 58 60 62 64 66 68 70 72 75 78 81 84 87 89 90 90 89 90 90 88 83 83 83 84 84 84 85 86 87 88
58 59 62 64 65 63 60 57 57 58 58 59 60 62 63 65 67 69 71 73 76 79 82 85 87 90 91 91 90 90 91 88 84 83 84 84 84 85 86 88 89 90
61 62 63 65 64 62 59 58 59 59 60 60 62 63 65 67 69 71 73 74 77 80 83 86 89 91 92 92 91 91 92 89 85 84 84 84 84 85 87 89 90 91
62 63 64 65 63 61 60 60 60 61 61 62 64 65 67 69 70 72 74 76 78 81 85 88 90 92 93 93 92 93 93 89 85 84 85 84 85 86 88 90 91 93
63 64 64 64 62 61 61 61 61 62 63 64 65 67 69 70 72 73 75 77 80 83 87 90 92 93 94 93 92 93 92 88 84 84 85 85 86 88 90 92 94 97
63 64 63 63 61 61 61 62 62 63 64 66 67 69 71 72 73 75 77 79 82 86 89 92 93 94 93 93 93 93 90 85 83 84 85 86 88 90 92 95 97 101
63 63 62 61 61 61 62 62 63 65 66 67 68 70 72 73 74 76 78 81 84 88 90 92 93 93 93 93 93 91 87 83 83 84 85 86 89 91 93 97 100 103
62 61 60 61 61 62 62 63 65 66 67 68 70 71 73 74 76 77 80 83 86 89 91 93 93 92 92 93 92 88 84 82 83 84 85 86 89 91 95 99 102 103
61 61 61 61 62 62 63 65 66 67 68 69 71 72 74 75 77 79 81 84 87 90 92 92 92 91 92 92 90 86 83 82 82 83 85 86 89 92 96 99 101 103
61 61 61 61 62 63 64 65 66 67 69 70 72 73 75 76 78 80 83 86 89 91 92 91 91 92 92 91 88 84 82 82 82 83 84 86 89 93 96 100 102 105
60 60 60 61 62 63 64 65 66 68 70 71 73 74 75 77 79 82 85 88 90 91 90 91 92 92 91 89 85 83 82 82 82 83 84 86 89 93 98 102 104 107
59 59 61 62 63 64 65 65 66 68 71 72 74 75 76 78 81 84 87 88 89 90 90 91 92 91 89 87 84 83 83 82 82 83 84 87 90 94 100 103 105 107
60 61 63 64 64 65 65 66 67 69 71 73 74 75 77 80 83 85 87 88 88 89 91 91 91 89 87 85 84 84 83 83 83 83 85 87 91 96 101 105 106 105
62 63 64 65 65 65 65 66 68 70 72 74 75 76 79 81 84 86 87 87 88 89 90 90 89 87 85 84 84 85 84 84 84 85 87 89 93 97 102 106 106 101
64 65 65 66 66 66 66 67 69 71 73 75 76 78 81 83 84 85 86 86 87 88 89 88 87 85 85 85 86 86 86 85 85 86 89 92 95 99 103 106 103 94
65 66 66 66 66 66 66 68 70 73 75 77 78 80 81 83 84 84 85 85 86 87 87 86 85 85 85 85 86 86 86 86 85 87 90 93 97 100 103 104 96 81
65 66 66 66 66 66 68 69 72 75 77 78 79 80 81 82 83 84 84 84 85 85 85 85 84 85 85 86 86 86 86 86 86 88 91 94 98 101 103 100 85 69
65 65 66 66 67 67 68 71 73 76 77 78 79 80 81 81 83 84 84 83 84 84 84 84 85 85 86 86 86 86 86 86 87 90 93 96 99 101 102 93 75 59
64 65 66 66 67 68 69 71 74 75 76 78 79 79 80 81 83 83 83 82 83 83 83 84 85 85 86 86 85 85 85 86 88 91 94 97 99 101 97 84 65 54
63 65 66 66 67 68 70 71 73 74 75 77 78 78 80 81 82 82 81 82 82 82 83 84 85 85 86 86 85 85 85 87 89 92 94 97 98 98 90 74 60 53
63 65 66 66 67 68 70 72 73 73 75 76 76 77 79 81 81 81 80 81 82 82 82 83 84 85 85 85 85 85 86 88 90 92 94 95 96 92 80 65 57 53
64 65 66 67 68 69 70 72 72 73 73 74 75 77 79 80 80 80 80 81 81 82 82 82 83 84 84 85 85 85 87 89 91 93 94 94 93 86 71 58 56 54
65 66 66 67 68 69 70 71 71 72 72 73 74 76 78 78 78 78 79 80 81 81 82 82 82 83 83 83 84 86 88 90 91 92 94 93 89 79 63 53 54 54
66 66 66 66 67 68 69 70 70 71 71 71 73 74 76 76 77 77 78 79 80 81 82 81 81 81 81 82 83 86 89 90 91 93 93 92 85 72 57 51 52 52
67 66 66 65 66 67 68 69 69 70 70 70 71 73 75 75 75 76 77 78 79 80 80 80 79 79 79 80 82 85 88 90 92 93 93 90 80 65 54 49 48 49
Wind_Direction
287 288 288 289 288 287 286 285 285 286 288 289 289 289 290 293 294 296 296 296 297 297 297 297 297 297 298 299 300 302 304 303 299 296 295 294 294 292 292 292 294 295
287 287 288 289 288 286 285 284 285 287 288 288 288 289 291 293 295 296 296 296 297 297 297 296 296 297 298 299 300 302 304 302 299 296 296 295 295 294 294 294 295 296
286 286 287 288 287 285 284 283 285 287 288 288 288 290 292 294 295 296 296 296 296 296 296 296 296 297 297 299 299 301 303 302 298 296 296 296 295 295 295 296 296 296
285 285 287 287 285 283 282 283 285 287 288 288 290 292 293 295 295 296 296 297 297 296 296 296 296 296 297 298 299 301 302 301 298 296 296 296 296 296 297 297 297 298
284 285 286 286 283 280 281 284 286 287 288 289 291 293 294 295 296 296 297 297 297 296 296 296 296 297 298 299 300 301 302 301 298 297 296 296 297 297 298 298 298 300
284 285 286 283 280 279 282 285 287 288 289 291 292 294 295 296 296 296 297 297 297 296 296 296 296 297 299 300 301 302 302 301 299 297 297 297 297 298 299 300 300 302
285 285 284 280 278 280 283 286 287 289 290 292 293 294 295 295 296 296 297 297 296 296 296 296 297 298 300 301 302 302 302 302 300 298 298 298 299 300 301 301 302 304
285 283 281 278 278 281 284 286 288 290 291 293 294 294 295 295 295 296 297 297 297 297 297 297 298 300 301 302 303 303 303 302 301 299 299 300 301 302 303 303 304 305
284 281 278 277 279 282 284 286 289 290 292 293 294 294 294 295 296 297 297 297 297 298 298 299 300 301 302 303 303 303 304 303 302 301 301 302 303 304 304 304 305 306
282 279 278 279 281 283 285 287 290 291 292 293 294 294 295 295 296 297 298 298 299 299 299 300 301 302 303 304 304 305 305 304 303 302 303 303 304 304 305 305 307 308
280 279 279 281 283 285 287 289 291 292 293 294 294 294 295 296 297 297 298 299 300 300 301 302 303 304 304 304 305 306 306 305 304 303 304 305 305 305 306 308 310 310
280 280 281 283 286 288 289 291 293 294 294 294 294 295 295 296 297 297 298 300 301 302 302 303 304 305 305 305 306 307 307 306 305 305 305 305 306 307 309 311 312 311
280 281 283 286 289 290 292 294 295 295 295 294 295 295 296 297 297 297 299 301 302 303 304 304 305 306 306 306 306 307 307 307 306 305 306 307 308 310 311 313 313 312
281 283 285 288 290 292 294 296 296 295 295 295 295 295 296 296 297 298 300 302 303 304 305 306 306 306 306 307 307 307 308 307 306 306 306 307 309 311 312 313 313 312
282 284 286 289 291 294 296 297 296 296 295 295 295 295 296 297 299 300 302 303 304 305 306 307 307 307 307 308 308 308 308 307 307 307 307 308 310 312 313 313 313 312
283 285 288 290 292 295 296 297 296 295 295 294 294 295 297 298 300 302 303 304 305 306 307 308 307 308 308 308 308 308 308 308 308 308 309 311 312 313 314 314 314 310
283 286 289 291 293 295 296 296 296 295 294 294 294 296 298 300 301 303 304 305 307 307 308 308 308 308 309 309 309 309 309 308 309 309 311 313 314 315 315 315 313 307
285 288 290 291 293 295 295 295 294 294 294 294 295 296 298 300 302 304 305 306 307 308 309 309 309 309 309 309 309 309 309 309 309 311 313 314 315 316 316 316 312 302
287 289 291 292 293 293 294 294 293 293 294 294 296 298 299 301 303 304 306 307 308 309 309 309 309 309 310 310 310 309 309 309 310 313 315 316 317 317 317 316 309 297
289 291 292 292 293 293 293 293 293 293 295 296 297 299 301 303 304 305 306 307 308 309 309 309 310 310 310 310 310 310 309 310 312 315 317 318 319 318 318 315 306 295
291 292 293 292 293 293 293 293 294 295 296 297 299 301 302 304 304 304 306 307 308 309 310 310 310 311 311 311 310 310 310 311 314 316 318 319 319 318 318 313 303 295
293 293 293 293 293 293 293 294 295 296 297 299 301 302 303 304 304 304 306 307 308 309 310 311 311 312 312 311 311 311 311 313 315 317 319 320 320 319 317 310 300 296
294 294 294 294 293 293 293 294 295 297 298 300 302 303 304 303 303 304 306 307 308 309 310 312 312 313 313 312 312 311 312 315 317 318 320 322 321 319 316 307 298 297
294 294 294 293 293 292 293 294 295 297 299 301 303 304 304 303 303 304 306 307 308 309 311 312 313 314 314 313 313 313 314 317 318 320 322 323 321 319 315 305 298 297
293 292 292 292 292 292 293 294 296 297 299 302 304 304 303 303 303 304 306 307 309 310 311 313 314 315 314 314 314 315 317 319 321 322 324 324 321 320 314 304 299 297
291 290 290 290 290 291 292 294 295 298 300 303 304 304 303 302 303 305 306 307 309 310 312 314 315 315 315 315 317 318 320 322 323 324 325 323 321 320 314 306 301 298
Height
5656 5654 5652 5650 5648 5645 5643 5640 5637 5635 5632 5629 5627 5624 5620 5616 5613 5609 5605 5602 5598 5593 5588 5583 5579 5574 5568 5563 5558 5554 5549 5543 5539 5534 5530 5526 5522 5518 5514 5510 5506 5501
5649 5647 5645 5643 5640 5637 5635 5632 5630 5627 5624 5621 5619 5616 5612 5609 5605 5601 5597 5593 5589 5584 5579 5574 5569 5564 5558 5553 5548 5543 5538 5533 5528 5523 5518 5515 5510 5506 5502 5497 5493 5488
5642 5640 5637 5635 5632 5629 5627 5624 5622 5619 5616 5613 5610 5607 5604 5600 5596 5592 5588 5584 5580 5575 5570 5565 5559 5554 5548 5543 5538 5533 5528 5522 5517 5512 5507 5503 5498 5493 5489 5484 5480 5474
5634 5632 5629 5627 5624 5621 5619 5616 5613 5611 5608 5604 5601 5598 5595 5591 5587 5583 5579 5575 5570 5565 5560 5554 5549 5543 5538 5533 5527 5522 5517 5511 5506 5500 5495 5491 5486 5480 5475 5470 5465 5460
5626 5623 5621 5619 5616 5613 5610 5608 5605 5602 5599 5595 5592 5589 5586 5582 5578 5574 5569 5565 5560 5555 5549 5544 5538 5533 5527 5522 5516 5511 5505 5500 5494 5488 5483 5480 5474 5468 5463 5456 5451 5446
5617 5615 5613 5610 5607 5605 5602 5599 5596 5593 5590 5586 5583 5580 5576 5572 5568 5564 5560 5555 5550 5544 5539 5533 5527 5522 5516 5510 5505 5499 5493 5487 5482 5477 5471 5467 5462 5456 5449 5442 5437 5432
5609 5607 5604 5602 5599 5596 5593 5590 5587 5584 5581 5577 5574 5570 5566 5563 5558 5554 5550 5545 5540 5534 5529 5523 5517 5511 5505 5500 5494 5488 5481 5476 5470 5465 5460 5455 5449 5443 5436 5428 5422 5417
5600 5598 5596 5593 5591 5588 5585 5582 5578 5575 5572 5568 5565 5561 5557 5553 5548 5545 5540 5535 5530 5524 5518 5513 5507 5501 5495 5489 5483 5476 5470 5465 5459 5454 5449 5443 5437 5431 5424 5415 5408 5403
5592 5590 5588 5585 5583 5580 5576 5573 5569 5566 5563 5559 5555 5551 5547 5543 5539 5535 5530 5525 5520 5514 5508 5503 5497 5491 5485 5478 5471 5465 5460 5454 5449 5443 5438 5433 5426 5419 5412 5404 5396 5389
5584 5582 5579 5577 5574 5571 5568 5564 5561 5557 5554 5550 5547 5543 5538 5534 5530 5525 5520 5515 5510 5504 5498 5493 5487 5481 5475 5468 5461 5454 5450 5445 5439 5433 5428 5422 5416 5409 5401 5393 5384 5375
5575 5574 5572 5569 5566 5563 5559 5556 5552 5549 5545 5541 5538 5533 5529 5525 5520 5515 5510 5505 5499 5494 5488 5482 5477 5471 5464 5457 5451 5444 5439 5435 5429 5424 5418 5412 5405 5398 5389 5380 5370 5360
5568 5566 5564 5561 5558 5554 5551 5547 5544 5540 5536 5532 5528 5524 5519 5515 5510 5505 5500 5495 5489 5483 5478 5472 5466 5460 5454 5447 5441 5435 5430 5425 5419 5414 5408 5402 5395 5387 5377 5366 5355 5344
5560 5558 5555 5552 5549 5546 5542 5539 5535 5531 5527 5523 5519 5514 5509 5505 5500 5495 5490 5485 5479 5473 5468 5462 5456 5450 5444 5438 5432 5426 5420 5415 5410 5404 5398 5392 5385 5375 5364 5354 5344 5331
5552 5550 5547 5544 5540 5537 5534 5530 5526 5522 5517 5513 5508 5504 5499 5495 5491 5486 5481 5476 5470 5464 5458 5452 5446 5440 5434 5428 5422 5416 5411 5406 5401 5395 5389 5382 5375 5365 5353 5342 5332 5321
5543 5541 5538 5535 5532 5528 5525 5521 5517 5512 5507 5502 5498 5494 5489 5485 5481 5476 5472 5466 5460 5454 5448 5442 5436 5430 5424 5418 5412 5406 5400 5395 5390 5384 5378 5371 5365 5355 5342 5330 5317 5307
5535 5532 5529 5526 5523 5520 5516 5512 5507 5502 5497 5492 5488 5484 5480 5476 5471 5467 5462 5457 5451 5444 5438 5432 5426 5420 5414 5407 5401 5394 5389 5384 5379 5373 5365 5358 5351 5342 5331 5318 5304 5292
5526 5524 5521 5517 5514 5511 5506 5502 5497 5492 5487 5482 5478 5474 5470 5466 5462 5457 5452 5447 5442 5435 5429 5422 5416 5410 5404 5397 5390 5383 5377 5372 5368 5362 5354 5346 5337 5329 5318 5306 5293 5282
5517 5515 5512 5508 5505 5501 5497 5492 5487 5482 5478 5473 5470 5466 5461 5457 5452 5447 5443 5438 5432 5426 5419 5412 5406 5400 5394 5387 5380 5373 5366 5360 5356 5350 5343 5335 5325 5315 5304 5292 5282 5273
5509 5506 5503 5499 5495 5491 5487 5483 5478 5474 5469 5465 5461 5457 5453 5448 5443 5438 5433 5428 5423 5417 5410 5403 5397 5390 5384 5376 5370 5363 5356 5349 5344 5338 5331 5322 5313 5302 5290 5279 5271 5264
5499 5496 5493 5489 5486 5482 5478 5474 5469 5465 5461 5457 5453 5449 5444 5439 5433 5428 5423 5418 5413 5408 5402 5394 5387 5380 5374 5366 5359 5353 5346 5339 5333 5326 5318 5310 5299 5288 5277 5267 5260 5255
5490 5487 5483 5480 5477 5473 5469 5465 5461 5457 5453 5448 5444 5440 5436 5431 5425 5419 5414 5408 5403 5399 5393 5385 5378 5371 5364 5356 5348 5342 5336 5329 5323 5316 5309 5299 5288 5276 5266 5257 5251 5246
5481 5477 5474 5471 5468 5464 5460 5456 5453 5449 5444 5440 5436 5432 5427 5422 5416 5410 5405 5399 5393 5389 5384 5377 5369 5361 5354 5346 5339 5332 5326 5320 5313 5306 5299 5290 5278 5267 5257 5249 5242 5237
5471 5468 5465 5462 5458 5455 5452 5448 5444 5440 5436 5432 5427 5423 5418 5413 5408 5401 5395 5391 5385 5379 5375 5369 5361 5353 5345 5337 5329 5322 5316 5310 5303 5296 5288 5279 5268 5257 5249 5241 5234 5229
5462 5459 5456 5453 5450 5446 5443 5439 5436 5431 5427 5424 5419 5414 5409 5404 5399 5393 5387 5381 5376 5370 5365 5360 5353 5345 5337 5329 5321 5312 5305 5299 5292 5285 5277 5268 5257 5248 5241 5233 5227 5222
5453 5450 5447 5444 5441 5438 5434 5430 5427 5423 5419 5415 5411 5406 5401 5396 5391 5385 5379 5373 5367 5361 5356 5351 5345 5338 5329 5321 5313 5303 5294 5287 5280 5272 5265 5256 5247 5239 5233 5226 5220 5215
5444 5441 5438 5435 5432 5429 5425 5421 5418 5414 5410 5407 5402 5397 5392 5387 5383 5378 5372 5365 5359 5352 5347 5342 5337 5331 5323 5314 5306 5295 5285 5276 5268 5258 5251 5244 5237 5231 5225 5219 5214 5208